Yaogan 32 hao 01 zu 01 xing

operational
NORAD ID: 43642 Int'l Des: 2018-077 Owner: ZLZB Country: CN Constellation: yaogan
LEOCIRCULARRETROGRADESSO

关于 Yaogan 32 hao 01 zu 01 xing

正在加载描述...

实时位置

正在加载3D地球...

即将过境

高度历史

Altitude vs Time

uPlot chart will show altitude changes over time

两行轨道根数

1 43642U 18077A 26071.01212641 .00000833 00000-0 17151-3 0 9997
2 43642 98.1596 100.6846 0001770 95.2178 264.9225 14.63040361395635
Epoch: Mar 12, 2026 • Age: 35 hours

当前状态

高度 691.6 km
速度 7.51 km/s
星下点 -20.41°S, 134.06°E
发射日期 Oct 9, 2018
运行时间 7.4 years
类型 military

技术详情

分类 Payload
质量 500.00 kg
干质量 500.00 kg
总质量 500.00 kg
长度 0.50 m
直径 0.50 m
跨度 1.00 m
形状 Box + 2 Pan
制造商 SECM
阶段状态 In Orbit
所有者/国家 ZLZB/CN

大型星座

Loading constellations...